When you browse on this site, cookies collect data to enhance your experience and personalize the content and advertising you see.
Visit our Privacy Policy to learn more. By continuing to use the site, you agree to this use of cookies and data.
  • In Hungary
  • List of Countries
  • For 7 days
  • Water Temperature
  • Weather Map
  • News
  • Weather Widgets
  • user-avatar
    Login

    Hourly Weather Wysieradz

    Today, 14 December, Saturday

    Time Temperature Precipitation Wind Pressure Humidity
    00:00 -1°C° 0 mm 6 mps 726 mmHg 81%
    01:00 -1°C° 0 mm 6 mps 726 mmHg 82%
    02:00 -1°C° 0 mm 6 mps 726 mmHg 82%
    03:00 -1°C° 0 mm 6 mps 726 mmHg 83%
    04:00 -1°C° 0 mm 6 mps 726 mmHg 84%
    05:00 -1°C° 0 mm 6 mps 726 mmHg 84%
    06:00 -1°C° 0 mm 6 mps 726 mmHg 85%
    07:00 -1°C° 0 mm 6 mps 727 mmHg 85%
    08:00 +1°C° 0 mm 6 mps 727 mmHg 83%
    09:00 +1°C° 0 mm 6 mps 727 mmHg 81%
    10:00 +1°C° 0 mm 6 mps 728 mmHg 80%
    11:00 +2°C° 0 mm 6 mps 728 mmHg 77%
    12:00 +3°C° 0 mm 6 mps 728 mmHg 74%
    13:00 +3°C° 0 mm 6 mps 728 mmHg 71%
    14:00 +3°C° 0 mm 7 mps 728 mmHg 73%
    15:00 +2°C° 0 mm 7 mps 728 mmHg 76%
    16:00 +1°C° 0 mm 8 mps 728 mmHg 78%
    17:00 +1°C° 0.2 mm 8 mps 728 mmHg 79%
    18:00 +1°C° 0.2 mm 9 mps 729 mmHg 79%
    19:00 +1°C° 0.2 mm 10 mps 729 mmHg 80%
    20:00 +1°C° 0 mm 9 mps 730 mmHg 80%
    21:00 +1°C° 0 mm 8 mps 731 mmHg 81%
    22:00 +1°C° 0 mm 8 mps 732 mmHg 82%
    23:00 +2°C° 0 mm 7 mps 732 mmHg 78%

    Tomorrow, 15 December, Sunday

    Time Temperature Precipitation Wind Pressure Humidity
    00:00 +2°C° 0 mm 7 mps 733 mmHg 75%
    01:00 +2°C° 0 mm 6 mps 733 mmHg 72%
    02:00 +2°C° 0.1 mm 7 mps 733 mmHg 73%
    03:00 +2°C° 0.1 mm 7 mps 734 mmHg 75%
    04:00 +1°C° 0.1 mm 8 mps 734 mmHg 77%
    05:00 0°C° 0 mm 7 mps 735 mmHg 76%
    06:00 +1°C° 0 mm 6 mps 735 mmHg 76%
    07:00 +1°C° 0 mm 6 mps 736 mmHg 75%
    08:00 +1°C° 0 mm 5 mps 736 mmHg 73%
    09:00 +1°C° 0 mm 5 mps 737 mmHg 70%
    10:00 +2°C° 0 mm 5 mps 737 mmHg 68%
    11:00 +3°C° 0 mm 6 mps 737 mmHg 69%
    12:00 +4°C° 0 mm 6 mps 736 mmHg 70%
    13:00 +5°C° 0 mm 7 mps 736 mmHg 71%
    14:00 +5°C° 0.1 mm 7 mps 736 mmHg 74%
    15:00 +6°C° 0.1 mm 8 mps 736 mmHg 77%
    16:00 +6°C° 0.1 mm 8 mps 736 mmHg 81%
    17:00 +6°C° 0.3 mm 7 mps 737 mmHg 82%
    18:00 +7°C° 0.3 mm 6 mps 737 mmHg 83%
    19:00 +6°C° 0.3 mm 5 mps 738 mmHg 84%
    20:00 +6°C° 0.1 mm 5 mps 739 mmHg 86%
    21:00 +6°C° 0.1 mm 5 mps 739 mmHg 88%
    22:00 +5°C° 0.1 mm 5 mps 740 mmHg 89%
    23:00 +5°C° 0 mm 5 mps 741 mmHg 88%

    Day after tomorrow, 16 December, Monday

    Time Temperature Precipitation Wind Pressure Humidity
    00:00 +5°C° 0 mm 5 mps 741 mmHg 88%
    01:00 +5°C° 0 mm 4 mps 741 mmHg 87%
    02:00 +5°C° 0 mm 4 mps 742 mmHg 87%
    03:00 +4°C° 0 mm 4 mps 742 mmHg 88%
    04:00 +4°C° 0 mm 3 mps 742 mmHg 89%
    05:00 +4°C° 0 mm 3 mps 742 mmHg 89%
    06:00 +4°C° 0 mm 3 mps 743 mmHg 89%
    07:00 +4°C° 0 mm 3 mps 743 mmHg 89%
    08:00 +4°C° 0 mm 3 mps 743 mmHg 86%
    09:00 +5°C° 0 mm 3 mps 743 mmHg 83%
    10:00 +5°C° 0 mm 3 mps 744 mmHg 80%
    11:00 +5°C° 0 mm 3 mps 743 mmHg 77%
    12:00 +7°C° 0 mm 3 mps 743 mmHg 75%
    13:00 +7°C° 0 mm 3 mps 743 mmHg 72%
    14:00 +7°C° 0 mm 3 mps 743 mmHg 74%
    15:00 +7°C° 0 mm 3 mps 743 mmHg 76%
    16:00 +6°C° 0 mm 4 mps 743 mmHg 77%
    17:00 +5°C° 0 mm 4 mps 743 mmHg 80%
    18:00 +5°C° 0 mm 4 mps 743 mmHg 83%
    19:00 +5°C° 0 mm 4 mps 743 mmHg 87%
    20:00 +5°C° 0 mm 4 mps 742 mmHg 87%
    21:00 +5°C° 0 mm 4 mps 742 mmHg 88%
    22:00 +5°C° 0 mm 4 mps 742 mmHg 88%
    23:00 +5°C° 0 mm 4 mps 742 mmHg 87%

    17 December, Tuesday

    Time Temperature Precipitation Wind Pressure Humidity
    00:00 +5°C° 0 mm 4 mps 742 mmHg 86%
    01:00 +5°C° 0 mm 4 mps 741 mmHg 86%
    02:00 +5°C° 0 mm 4 mps 741 mmHg 86%
    03:00 +5°C° 0 mm 4 mps 741 mmHg 86%
    04:00 +5°C° 0 mm 4 mps 741 mmHg 86%
    05:00 +5°C° 0 mm 4 mps 741 mmHg 86%
    06:00 +5°C° 0 mm 4 mps 741 mmHg 87%
    07:00 +5°C° 0 mm 4 mps 740 mmHg 88%
    08:00 +5°C° 0 mm 4 mps 741 mmHg 87%
    09:00 +5°C° 0 mm 4 mps 741 mmHg 86%
    10:00 +7°C° 0 mm 3 mps 741 mmHg 85%
    11:00 +7°C° 0 mm 3 mps 741 mmHg 82%
    12:00 +8°C° 0 mm 3 mps 741 mmHg 80%
    13:00 +9°C° 0 mm 3 mps 740 mmHg 77%
    14:00 +8°C° 0 mm 3 mps 741 mmHg 79%
    15:00 +8°C° 0 mm 3 mps 741 mmHg 81%
    16:00 +7°C° 0 mm 3 mps 741 mmHg 82%
    17:00 +7°C° 0 mm 3 mps 741 mmHg 85%
    18:00 +7°C° 0 mm 3 mps 741 mmHg 87%
    19:00 +7°C° 0 mm 3 mps 741 mmHg 89%
    20:00 +5°C° 0 mm 3 mps 741 mmHg 90%
    21:00 +5°C° 0 mm 3 mps 741 mmHg 91%
    22:00 +5°C° 0 mm 3 mps 742 mmHg 92%
    23:00 +5°C° 0 mm 3 mps 742 mmHg 92%

    18 December, Wednesday

    Time Temperature Precipitation Wind Pressure Humidity
    00:00 +4°C° 0 mm 3 mps 742 mmHg 93%
    01:00 +4°C° 0 mm 3 mps 742 mmHg 93%
    02:00 +4°C° 0 mm 3 mps 742 mmHg 92%
    03:00 +4°C° 0 mm 3 mps 742 mmHg 92%
    04:00 +4°C° 0 mm 3 mps 742 mmHg 91%
    05:00 +4°C° 0 mm 3 mps 742 mmHg 91%
    06:00 +4°C° 0 mm 3 mps 742 mmHg 91%
    07:00 +3°C° 0 mm 3 mps 742 mmHg 90%
    08:00 +4°C° 0 mm 3 mps 743 mmHg 88%
    09:00 +5°C° 0 mm 3 mps 743 mmHg 85%
    10:00 +5°C° 0 mm 3 mps 743 mmHg 83%
    11:00 +7°C° 0 mm 3 mps 743 mmHg 80%
    12:00 +8°C° 0 mm 3 mps 743 mmHg 77%
    13:00 +8°C° 0 mm 4 mps 743 mmHg 74%
    14:00 +8°C° 0 mm 3 mps 743 mmHg 77%
    15:00 +8°C° 0 mm 3 mps 744 mmHg 81%
    16:00 +7°C° 0 mm 3 mps 744 mmHg 84%
    17:00 +5°C° 0 mm 3 mps 744 mmHg 85%
    18:00 +5°C° 0 mm 3 mps 745 mmHg 85%
    19:00 +4°C° 0 mm 3 mps 745 mmHg 86%
    20:00 +5°C° 0 mm 2 mps 745 mmHg 87%
    21:00 +5°C° 0 mm 2 mps 746 mmHg 89%
    22:00 +6°C° 0 mm 1 mps 746 mmHg 91%
    23:00 +5°C° 0 mm 1 mps 746 mmHg 92%

    19 December, Thursday

    Time Temperature Precipitation Wind Pressure Humidity
    00:00 +5°C° 0 mm 1 mps 746 mmHg 93%
    01:00 +5°C° 0 mm 1 mps 746 mmHg 94%
    02:00 +5°C° 0 mm 1 mps 746 mmHg 94%
    03:00 +5°C° 0 mm 1 mps 746 mmHg 94%
    04:00 +4°C° 0 mm 2 mps 746 mmHg 95%
    05:00 +3°C° 0 mm 2 mps 746 mmHg 95%
    06:00 +3°C° 0 mm 2 mps 745 mmHg 95%
    07:00 +2°C° 0 mm 3 mps 745 mmHg 95%
    08:00 +3°C° 0 mm 3 mps 745 mmHg 94%
    09:00 +3°C° 0 mm 4 mps 746 mmHg 93%
    10:00 +3°C° 0 mm 4 mps 746 mmHg 91%
    11:00 +4°C° 0 mm 4 mps 745 mmHg 90%
    12:00 +3°C° 0 mm 5 mps 745 mmHg 89%
    13:00 +3°C° 0 mm 5 mps 744 mmHg 87%
    14:00 +3°C° 0 mm 5 mps 744 mmHg 87%
    15:00 +3°C° 0 mm 5 mps 744 mmHg 87%
    16:00 +3°C° 0 mm 5 mps 743 mmHg 87%
    17:00 +3°C° 0 mm 5 mps 743 mmHg 87%
    18:00 +3°C° 0 mm 5 mps 743 mmHg 87%
    19:00 +3°C° 0 mm 5 mps 743 mmHg 87%
    20:00 +3°C° 0.1 mm 6 mps 743 mmHg 88%
    21:00 +3°C° 0.1 mm 6 mps 742 mmHg 89%
    22:00 +3°C° 0.1 mm 6 mps 742 mmHg 90%
    23:00 +3°C° 0.3 mm 5 mps 742 mmHg 90%
    Show more